Location: Unspecified
(42.9300°N, 71.1866°W)
Time: 04:48:42
(UTC-05:00)

Cosmos 1674 - Visible Passes

Search period start: 20 January 2017 00:00
Search period end: 30 January 2017 00:00
Orbit: 500 x 522 km, 82.5° (Epoch: 19 January)

Date Brightness Start Highest point End Pass type
(mag) Time Alt. Az. Time Alt. Az. Time Alt. Az.
20 Jan 4.6 17:42:53 10° SW 17:46:20 32° WNW 17:49:51 10° N visible
21 Jan 4.1 17:26:23 10° SSW 17:30:01 41° WNW 17:33:41 10° N visible
26 Jan 6.0 17:43:36 10° W 17:44:31 11° WNW 17:45:26 10° NW visible
27 Jan 5.7 17:26:11 10° W 17:28:07 13° WNW 17:30:02 10° NW visible
